STARLINK AT

Last updated on June 19, 2020, 12:02 a.m. UTC

1 45771U 20038AT  20170.75001157  .00115333  11275-4  14323-3 0  9995
2 45771  52.9999 271.8087 0111352  69.6467 146.8366 15.96144290  2134

Satellite is not in orbit.